Weather in Lopkhari

Russia / Yamalo-Nenets Autonomous Okrug     64°59′00″N   65°45′45″E
temp.,
°C
wind,
m/s
gust,
m/s
humid.,
%
clouds,
%
prec.,
mm/h
press.,
hPa
HPBL,
m
27 february, sat
sat2723:00−22ssw349697 0.0 102331
02:00−23ssw349673 0.0 102221
05:00−23s349862 0.0 102325
08:00−25s449940 0.0 102223
11:00−21s459540 0.0 1023171
14:00−19s459319 0.0 1023229
17:00−22s459618 0.0 102339
20:00−24s459617 0.0 102238
28 february, sun
sun2823:00−25ssw459717 0.0 102343
02:00−26s459818 0.0 102237
05:00−27s45989 0.0 102240
08:00−28s45980 0.0 102249
11:00−25s57940 0.0 1021241
14:00−23s57924 0.0 1021246
17:00−25s459227 0.0 102168
20:00−26ssw459454 0.0 102043
1 march, mon
mon123:00−27s449956 0.0 102128
02:00−27s459751 0.0 102039
05:00−28ssw459655 0.0 102047
08:00−29s459849 0.0 101948
11:00−24ssw689436 0.0 1018245
14:00−22s699421 0.0 1016260
17:00−22s7129121 0.0 1014246
20:00−22ssw713910 0.0 1012220
2 march, tue
tue223:00−21s8149623 0.0 1010252
02:00−20s8159498 0.0 1008285
05:00−20s9159399 0.0 1006323
08:00−20s101693100 0.0 1005334
11:00−19s101692100 0.0 1005398
14:00−16s101688100 0.0 1004465
17:00−14s91588100 0.0 1003498
20:00−14s81589100 0.0 1003495
3 march, wed
wed323:00−15s91493100 0.2 1003501
02:00−15s81394100 0.4 1002473
05:00−16s71395100 0.8 1002430
08:00−16s71295100 0.5 1002409
11:00−15s81293100 0.9 1002494
14:00−13s71192100 0.3 1002526
17:00−13s61193100 0.6 1002516
20:00−14s61194100 0.3 1001443